Elizabeth City, NC

1:55 PM EDT on June 23, 2017 (GMT -0400)
Elizabeth City Cgas-Regional

Weather History for KECG - February, 2014

Change the Weather History Date:

Sunday, February 16, 2014

  Actual Average Record
Temperature  
Mean Temperature 37 °F 44 °F  
Max Temperature 48 °F 54 °F 80 °F (1945)
Min Temperature 26 °F 35 °F 16 °F (1963)
Degree Days  
Heating Degree Days 28 21  
Month to date heating degree days 383 347  
Since 1 July heating degree days 2352 2234  
Cooling Degree Days 0 0  
Month to date cooling degree days 0 0  
Year to date cooling degree days 0 1  
Moisture  
Dew Point 25 °F    
Average Humidity 63    
Maximum Humidity 81    
Minimum Humidity 45    
Precipitation  
Precipitation 0.00 in 0.12 in 1.84 in (2003)
Month to date precipitation 1.65 1.80  
Year to date precipitation 3.82 5.06  
Snow  
Snow 0.00 in - 5.00 in (2004)
Month to date snowfall 0.2  
Since 1 July snowfall 9.7  
Snow Depth 0.00 in    
Sea Level Pressure  
Sea Level Pressure 30.07 in    
Wind  
Wind Speed 8 mph (West)    
Max Wind Speed 16 mph    
Max Gust Speed 20 mph    
Visibility 10 miles    
Events      
T = Trace of Precipitation, MM = Missing Value Source: NWS Daily Summary

Daily Weather History Graph

Daily Weather History Graph

Search for Another Location

Airport or City:

Trip Planner

Search our weather history database for the weather conditions in past years. The results will help you decide how hot, cold, wet, or windy it might be!

Date:

Astronomy

Feb. 16, 2014 Rise Set
Actual Time 6:51 AM EST 5:46 PM EST
Civil Twilight 6:24 AM EST 6:13 PM EST
Nautical Twilight 5:54 AM EST 6:43 PM EST
Astronomical Twilight 5:24 AM EST 7:13 PM EST
Moon 7:36 PM EST (2/16) 7:23 AM EST (2/16)
Length of Visible Light 11h 48m
Length of Day
10h 55m
Full, 97% of the Moon is Illuminated
Feb 16
Full
Feb 22
Last Quarter
Mar 1
New
Mar 8
First Quarter
Mar 16
Full

Hourly Weather History & Observations

Time (EST) Temp. Windchill Dew Point Humidity Pressure Visibility Wind Dir Wind Speed Gust Speed Precip Events Conditions
12:54 AM 30.9 °F 21.7 °F 21.9 °F 69% 30.02 in 10.0 mi West 11.5 mph - N/A   Clear
1:54 AM 30.9 °F 22.8 °F 21.9 °F 69% 30.03 in 10.0 mi WNW 9.2 mph - N/A   Clear
2:54 AM 30.0 °F 22.4 °F 21.0 °F 69% 30.05 in 10.0 mi West 8.1 mph - N/A   Clear
3:54 AM 28.9 °F 22.8 °F 21.0 °F 72% 30.06 in 10.0 mi WSW 5.8 mph - N/A   Clear
4:54 AM 28.0 °F 24.2 °F 21.0 °F 75% 30.06 in 10.0 mi West 3.5 mph - N/A   Clear
5:54 AM 27.0 °F 19.5 °F 21.0 °F 78% 30.07 in 10.0 mi West 6.9 mph - N/A   Clear
6:54 AM 30.0 °F 23.2 °F 21.0 °F 69% 30.09 in 10.0 mi West 6.9 mph - N/A   Partly Cloudy
7:54 AM 30.9 °F 26.2 °F 19.9 °F 64% 30.09 in 10.0 mi NW 4.6 mph - N/A   Mostly Cloudy
8:54 AM 34.0 °F 28.8 °F 21.9 °F 61% 30.11 in 10.0 mi NNW 5.8 mph - N/A   Partly Cloudy
9:54 AM 35.1 °F 30.1 °F 21.0 °F 57% 30.12 in 10.0 mi SSW 5.8 mph - N/A   Partly Cloudy
10:54 AM 37.0 °F 31.6 °F 21.9 °F 54% 30.11 in 10.0 mi South 6.9 mph - N/A   Clear
11:54 AM 39.9 °F 34.5 °F 23.0 °F 51% 30.11 in 10.0 mi SW 8.1 mph - N/A   Clear
12:54 PM 41.0 °F 35.2 °F 23.0 °F 49% 30.06 in 10.0 mi SSW 9.2 mph - N/A   Clear
1:54 PM 45.0 °F 39.7 °F 26.1 °F 48% 30.05 in 10.0 mi WSW 10.4 mph - N/A   Clear
2:54 PM 46.0 °F 41.0 °F 26.1 °F 46% 30.01 in 10.0 mi SW 10.4 mph 18.4 mph N/A   Clear
3:54 PM 48.0 °F - 28.9 °F 48% 30.01 in 10.0 mi WSW 12.7 mph - N/A   Clear
4:54 PM 46.9 °F - 28.0 °F 48% 30.01 in 10.0 mi WSW 10.4 mph - N/A   Clear
5:54 PM 41.0 °F 35.8 °F 30.0 °F 65% 30.02 in 10.0 mi SW 8.1 mph - N/A   Clear
6:54 PM 39.9 °F 34.5 °F 28.9 °F 65% 30.05 in 10.0 mi SW 8.1 mph - N/A   Clear
7:54 PM 41.0 °F 37.1 °F 30.0 °F 65% 30.07 in 10.0 mi West 5.8 mph - N/A   Mostly Cloudy
8:54 PM 37.9 °F 34.4 °F 30.0 °F 73% 30.09 in 10.0 mi WNW 4.6 mph - N/A   Mostly Cloudy
9:54 PM 39.0 °F 31.4 °F 28.9 °F 67% 30.12 in 10.0 mi NNW 12.7 mph - N/A   Scattered Clouds
10:54 PM 39.0 °F 34.8 °F 30.0 °F 70% 30.14 in 10.0 mi NW 5.8 mph - N/A   Mostly Cloudy
11:54 PM 39.0 °F 34.0 °F 28.0 °F 65% 30.17 in 10.0 mi NW 6.9 mph - N/A   Mostly Cloudy